Simultaneous Nadir Overpasses (SNOs) Predictions

Prediction of SNOs between GOES-14 and NPP Satellite Orbit:

Table of predicted SNOs for the next 14.0 days since TLE Epoch: 1/27/2024
Index Date Time (GOES-14) GOES-14 Lat,Lon NPP Lat,Lon Distance(km) Time Diff (sec)
1 01/27/2024 20:40:31 0.03,-108.52 -0.12,-109.09 66.17 80
2 01/28/2024 20:24:27 0.03,-108.51 0.90,-104.56 449.88 80
3 01/30/2024 08:46:15 -0.03,-108.50 0.25,-109.84 151.75 80
4 01/31/2024 08:24:49 -0.03,-108.50 -0.72,-105.30 364.22 80
5 02/01/2024 20:46:46 0.03,-108.50 -0.45,-110.60 240.20 80
6 02/02/2024 20:30:41 0.03,-108.49 0.58,-106.08 275.78 80
7 02/04/2024 08:52:29 -0.02,-108.48 0.62,-111.34 325.98 80
8 02/05/2024 08:31:04 -0.02,-108.47 -0.41,-106.81 189.63 80
9 02/06/2024 20:52:59 0.01,-108.46 -0.80,-112.11 415.61 80
10 02/07/2024 20:36:54 0.00,-108.45 0.18,-107.57 99.94 80
